• In Lithuania
  • List of Countries
  • For 7 days
  • Water Temperature
  • Satellite Maps
  • Weather Map
  • Weather Widgets
  • user-avatar
    Login

    Hourly Weather Novoternovskiy

    Today, 17 August, Friday

    Time Temperature Precipitation Wind Pressure Humidity
    00:00 +25°C° 0 mm 4 mps 743 mmHg 48%
    01:00 +23°C° 0 mm 4 mps 743 mmHg 50%
    02:00 +23°C° 0 mm 4 mps 743 mmHg 53%
    03:00 +21°C° 0 mm 3 mps 743 mmHg 54%
    04:00 +21°C° 0 mm 3 mps 743 mmHg 56%
    05:00 +21°C° 0 mm 3 mps 743 mmHg 58%
    06:00 +21°C° 0 mm 3 mps 743 mmHg 61%
    07:00 +24°C° 0 mm 3 mps 743 mmHg 54%
    08:00 +26°C° 0 mm 4 mps 744 mmHg 48%
    09:00 +28°C° 0 mm 4 mps 743 mmHg 41%
    10:00 +30°C° 0 mm 5 mps 743 mmHg 36%
    11:00 +32°C° 0 mm 5 mps 743 mmHg 31%
    12:00 +33°C° 0 mm 6 mps 743 mmHg 27%
    13:00 +34°C° 0 mm 5 mps 743 mmHg 25%
    14:00 +34°C° 0 mm 5 mps 742 mmHg 23%
    15:00 +35°C° 0 mm 5 mps 742 mmHg 22%
    16:00 +34°C° 0 mm 5 mps 742 mmHg 23%
    17:00 +33°C° 0 mm 4 mps 742 mmHg 24%
    18:00 +33°C° 0 mm 3 mps 742 mmHg 25%
    19:00 +30°C° 0 mm 3 mps 742 mmHg 26%
    20:00 +28°C° 0 mm 3 mps 742 mmHg 26%
    21:00 +26°C° 0 mm 3 mps 742 mmHg 27%
    22:00 +26°C° 0 mm 3 mps 742 mmHg 27%
    23:00 +25°C° 0 mm 2 mps 742 mmHg 27%

    Tomorrow, 18 August, Saturday

    Time Temperature Precipitation Wind Pressure Humidity
    00:00 +25°C° 0 mm 2 mps 742 mmHg 27%
    01:00 +24°C° 0 mm 2 mps 742 mmHg 27%
    02:00 +24°C° 0 mm 2 mps 742 mmHg 28%
    03:00 +23°C° 0 mm 2 mps 742 mmHg 28%
    04:00 +23°C° 0 mm 2 mps 742 mmHg 30%
    05:00 +23°C° 0 mm 2 mps 742 mmHg 32%
    06:00 +22°C° 0 mm 1 mps 742 mmHg 34%
    07:00 +25°C° 0 mm 2 mps 742 mmHg 30%
    08:00 +28°C° 0 mm 3 mps 742 mmHg 27%
    09:00 +30°C° 0 mm 3 mps 742 mmHg 23%
    10:00 +33°C° 0 mm 4 mps 742 mmHg 21%
    11:00 +34°C° 0 mm 5 mps 742 mmHg 20%
    12:00 +35°C° 0 mm 5 mps 742 mmHg 18%
    13:00 +35°C° 0 mm 5 mps 742 mmHg 18%
    14:00 +35°C° 0 mm 5 mps 742 mmHg 18%
    15:00 +35°C° 0 mm 5 mps 741 mmHg 17%
    16:00 +35°C° 0 mm 5 mps 741 mmHg 20%
    17:00 +34°C° 0 mm 4 mps 742 mmHg 22%
    18:00 +33°C° 0 mm 4 mps 742 mmHg 24%
    19:00 +30°C° 0 mm 4 mps 742 mmHg 27%
    20:00 +29°C° 0 mm 4 mps 742 mmHg 31%
    21:00 +27°C° 0 mm 4 mps 743 mmHg 35%
    22:00 +26°C° 0 mm 5 mps 743 mmHg 38%
    23:00 +26°C° 0 mm 5 mps 743 mmHg 41%

    Day after tomorrow, 19 August, Sunday

    Time Temperature Precipitation Wind Pressure Humidity
    00:00 +25°C° 0 mm 5 mps 743 mmHg 44%
    01:00 +23°C° 0 mm 5 mps 743 mmHg 44%
    02:00 +23°C° 0 mm 5 mps 743 mmHg 44%
    03:00 +22°C° 0 mm 5 mps 744 mmHg 44%
    04:00 +21°C° 0 mm 5 mps 744 mmHg 42%
    05:00 +21°C° 0 mm 5 mps 744 mmHg 41%
    06:00 +20°C° 0 mm 5 mps 744 mmHg 39%
    07:00 +22°C° 0 mm 5 mps 745 mmHg 37%
    08:00 +23°C° 0 mm 6 mps 745 mmHg 35%
    09:00 +24°C° 0 mm 6 mps 745 mmHg 33%
    10:00 +26°C° 0 mm 6 mps 745 mmHg 31%
    11:00 +27°C° 0 mm 6 mps 745 mmHg 29%
    12:00 +28°C° 0 mm 6 mps 745 mmHg 27%
    13:00 +29°C° 0 mm 6 mps 745 mmHg 26%
    14:00 +29°C° 0 mm 6 mps 744 mmHg 25%
    15:00 +29°C° 0 mm 6 mps 744 mmHg 23%
    16:00 +29°C° 0 mm 6 mps 744 mmHg 24%
    17:00 +28°C° 0 mm 5 mps 744 mmHg 25%
    18:00 +27°C° 0 mm 5 mps 744 mmHg 26%
    19:00 +25°C° 0 mm 5 mps 745 mmHg 28%
    20:00 +23°C° 0 mm 4 mps 745 mmHg 30%
    21:00 +21°C° 0 mm 4 mps 745 mmHg 32%
    22:00 +20°C° 0 mm 4 mps 745 mmHg 33%
    23:00 +20°C° 0 mm 4 mps 745 mmHg 34%

    20 August, Monday

    Time Temperature Precipitation Wind Pressure Humidity
    00:00 +19°C° 0 mm 4 mps 746 mmHg 35%
    01:00 +19°C° 0 mm 4 mps 745 mmHg 37%
    02:00 +18°C° 0 mm 4 mps 745 mmHg 39%
    03:00 +18°C° 0 mm 4 mps 745 mmHg 41%
    04:00 +17°C° 0 mm 4 mps 746 mmHg 43%
    05:00 +17°C° 0 mm 4 mps 746 mmHg 44%
    06:00 +17°C° 0 mm 4 mps 746 mmHg 46%
    07:00 +19°C° 0 mm 5 mps 746 mmHg 41%
    08:00 +21°C° 0 mm 6 mps 746 mmHg 37%
    09:00 +23°C° 0 mm 6 mps 746 mmHg 32%
    10:00 +24°C° 0 mm 6 mps 746 mmHg 30%
    11:00 +27°C° 0 mm 7 mps 746 mmHg 28%
    12:00 +28°C° 0 mm 7 mps 746 mmHg 26%
    13:00 +28°C° 0 mm 7 mps 745 mmHg 25%
    14:00 +29°C° 0 mm 7 mps 745 mmHg 24%
    15:00 +29°C° 0 mm 7 mps 745 mmHg 24%
    16:00 +29°C° 0 mm 6 mps 745 mmHg 25%
    17:00 +28°C° 0 mm 6 mps 745 mmHg 26%
    18:00 +28°C° 0 mm 5 mps 745 mmHg 28%
    19:00 +26°C° 0 mm 5 mps 745 mmHg 29%
    20:00 +23°C° 0 mm 5 mps 745 mmHg 31%
    21:00 +21°C° 0 mm 4 mps 746 mmHg 32%
    22:00 +21°C° 0 mm 4 mps 746 mmHg 34%
    23:00 +20°C° 0 mm 4 mps 746 mmHg 36%

    21 August, Tuesday

    Time Temperature Precipitation Wind Pressure Humidity
    00:00 +20°C° 0 mm 4 mps 745 mmHg 38%
    01:00 +19°C° 0 mm 4 mps 745 mmHg 40%
    02:00 +18°C° 0 mm 4 mps 745 mmHg 41%
    03:00 +18°C° 0 mm 4 mps 745 mmHg 43%
    04:00 +17°C° 0 mm 4 mps 746 mmHg 47%
    05:00 +17°C° 0 mm 4 mps 746 mmHg 51%
    06:00 +17°C° 0 mm 4 mps 746 mmHg 56%
    07:00 +19°C° 0 mm 5 mps 746 mmHg 53%
    08:00 +21°C° 0 mm 6 mps 746 mmHg 50%
    09:00 +23°C° 0 mm 7 mps 746 mmHg 47%
    10:00 +24°C° 0 mm 7 mps 746 mmHg 43%
    11:00 +26°C° 0 mm 7 mps 746 mmHg 40%
    12:00 +28°C° 0 mm 7 mps 746 mmHg 36%
    13:00 +29°C° 0 mm 7 mps 745 mmHg 35%
    14:00 +29°C° 0 mm 7 mps 745 mmHg 33%
    15:00 +30°C° 0 mm 6 mps 745 mmHg 32%
    16:00 +30°C° 0 mm 6 mps 745 mmHg 33%
    17:00 +29°C° 0 mm 5 mps 745 mmHg 35%
    18:00 +29°C° 0 mm 5 mps 745 mmHg 37%
    19:00 +27°C° 0 mm 5 mps 745 mmHg 40%
    20:00 +26°C° 0 mm 4 mps 745 mmHg 44%
    21:00 +23°C° 0 mm 4 mps 745 mmHg 48%
    22:00 +22°C° 0 mm 4 mps 745 mmHg 49%
    23:00 +22°C° 0 mm 4 mps 745 mmHg 51%

    22 August, Wednesday

    Time Temperature Precipitation Wind Pressure Humidity
    00:00 +21°C° 0 mm 4 mps 745 mmHg 52%
    01:00 +20°C° 0 mm 4 mps 746 mmHg 55%
    02:00 +20°C° 0 mm 3 mps 746 mmHg 59%
    03:00 +19°C° 0 mm 3 mps 746 mmHg 62%
    04:00 +19°C° 0 mm 3 mps 746 mmHg 64%
    05:00 +18°C° 0 mm 3 mps 746 mmHg 66%
    06:00 +18°C° 0 mm 3 mps 746 mmHg 68%
    07:00 +20°C° 0 mm 4 mps 746 mmHg 61%
    08:00 +22°C° 0 mm 4 mps 746 mmHg 54%
    09:00 +26°C° 0 mm 5 mps 747 mmHg 47%
    10:00 +27°C° 0 mm 5 mps 746 mmHg 42%
    11:00 +29°C° 0 mm 5 mps 746 mmHg 37%
    12:00 +30°C° 0 mm 5 mps 746 mmHg 33%
    13:00 +32°C° 0 mm 5 mps 746 mmHg 30%
    14:00 +32°C° 0 mm 5 mps 745 mmHg 28%
    15:00 +33°C° 0 mm 5 mps 745 mmHg 26%
    16:00 +32°C° 0 mm 5 mps 745 mmHg 26%
    17:00 +32°C° 0 mm 4 mps 745 mmHg 27%
    18:00 +30°C° 0 mm 4 mps 745 mmHg 27%
    19:00 +28°C° 0 mm 3 mps 745 mmHg 29%
    20:00 +26°C° 0 mm 3 mps 745 mmHg 31%
    21:00 +25°C° 0 mm 3 mps 745 mmHg 33%
    22:00 +24°C° 0 mm 3 mps 745 mmHg 35%
    23:00 +22°C° 0 mm 3 mps 745 mmHg 36%
    Show more